* Astronomy

Members Login
Username 
 
Password 
    Remember Me  
Post Info TOPIC: Asteroid 2011 DP


L

Posts: 131433
Date:
Asteroid 2011 DP
Permalink  
 


Orbital elements:
2011 DP Earth MOID = 0.1213 AU
Epoch 2011 Feb. 8.0 TT = JDT 2455600.5 MPC
M 102.26496 (2000.0) P Q
n 1.35433582 Peri. 198.97058 +0.97511013 +0.09248605
a 0.8090682 Node 153.13605 -0.09625370 +0.99531652
e 0.6133159 Incl. 26.48381 -0.19973847 -0.02813087
P 0.73 H 22.4 G 0.15 U 9
MPEC 2011 - D28

__________________
Page 1 of 1  sorted by
 
Quick Reply

Please log in to post quick replies.



Create your own FREE Forum
Report Abuse
Powered by ActiveBoard